Temperature
12 12 12 11 11 11 11 10 10 9 9 8 8 8 8 7 7 7 7 7 6 6 6 6 6 6 6 6 6 6 6 6 6 6 6 5 4 4 4 4 4 3 4
10 10 10 10 9 9 9 8 8 7 7 7 7 7 6 6 6 6 6 6 6 5 5 5 5 5 5 4 4 4 4 4 4 4 5 5 4 4 3 3 3 4 3
9 9 8 8 8 7 7 7 6 6 6 6 6 6 6 5 5 5 5 5 5 4 4 4 4 3 3 4 3 4 4 4 3 4 4 4 4 4 3 3 3 3 3
8 7 7 7 7 6 6 6 6 6 6 5 5 5 5 4 4 4 4 4 4 3 3 3 3 3 3 3 3 3 3 3 3 3 4 4 4 4 4 3 3 3 3
7 7 6 6 6 6 5 5 5 5 5 5 4 4 4 4 4 4 3 3 3 3 3 2 2 2 3 2 2 2 2 3 3 3 4 4 4 4 3 3 3 3 3
6 6 5 5 5 5 5 4 4 4 4 3 3 3 3 3 3 3 3 2 2 2 2 2 2 2 2 2 2 2 2 2 2 2 3 3 3 3 3 3 2 3 3
5 5 5 5 4 4 4 4 3 3 3 3 2 2 2 3 3 3 2 2 2 1 1 1 2 2 2 1 1 2 2 2 2 2 2 3 3 3 3 2 2 2 2
5 4 4 4 4 3 3 3 3 3 3 3 2 2 2 2 2 2 2 2 2 1 1 1 1 1 1 2 2 2 2 3 2 3 3 3 3 3 3 2 2 2 3
4 4 4 4 4 3 3 3 3 3 3 3 3 2 2 2 2 2 2 1 2 2 1 1 1 1 1 2 2 2 3 3 3 3 3 3 3 3 3 2 2 3 3
4 4 4 4 4 3 3 3 3 3 3 3 3 2 2 2 2 2 2 1 2 2 2 2 2 2 2 2 2 2 3 3 3 3 3 3 3 3 3 3 3 3 3
4 4 4 4 3 3 3 3 3 3 3 3 3 2 2 2 1 2 1 1 1 1 2 2 2 2 2 2 2 3 3 3 3 4 4 4 4 4 4 3 3 3 3
4 4 4 4 4 4 3 3 3 3 4 3 3 3 2 2 1 1 1 1 1 1 2 2 2 2 2 3 3 3 3 3 3 4 4 4 4 4 4 4 4 4 3
4 4 4 4 4 4 4 4 4 4 4 4 3 3 2 2 1 1 1 1 1 1 2 2 2 2 3 3 3 3 4 4 4 4 4 5 5 5 4 4 4 4 4
4 4 4 4 4 4 4 4 4 4 4 3 3 3 2 2 1 1 1 1 1 1 2 2 2 3 3 3 4 4 4 4 4 4 4 5 5 5 5 5 5 4 4
4 4 5 5 5 4 4 4 3 3 3 2 2 2 1 1 1 1 1 1 1 1 2 2 3 3 3 4 4 4 4 4 4 4 5 5 5 5 5 5 5 4 4
5 5 5 5 5 4 4 3 3 3 2 2 2 1 1 1 1 1 1 1 2 2 2 3 3 3 4 4 4 4 4 4 5 5 5 5 5 5 5 5 5 5 4
5 5 5 5 5 5 4 4 3 3 2 2 1 1 1 1 1 1 1 2 2 2 2 3 3 3 4 4 4 4 4 5 5 5 5 5 5 5 5 5 5 5 5
5 5 5 5 5 5 4 4 4 3 2 2 1 1 1 1 1 2 2 2 2 3 3 3 3 3 4 4 4 4 4 5 5 5 5 5 5 5 5 5 5 5 5
5 5 5 5 5 4 4 4 3 3 3 2 1 1 1 1 2 2 2 2 3 3 3 3 3 4 4 4 4 4 4 5 5 5 5 5 5 5 5 6 6 5 5
5 5 5 5 5 4 4 4 3 3 2 2 2 2 2 2 2 2 2 3 3 3 3 3 3 3 4 4 4 4 4 5 5 5 5 5 5 5 6 6 6 6 5
6 5 4 5 5 4 4 4 3 3 2 2 2 2 2 2 2 2 2 3 3 3 3 3 3 4 4 4 4 4 4 4 4 5 5 5 5 5 6 6 6 6 5
6 5 5 5 4 4 4 3 3 3 2 2 2 2 2 2 2 2 2 2 2 2 3 3 3 3 3 3 3 4 4 4 4 4 4 5 5 5 6 6 5 5 5
5 5 5 5 4 4 4 4 3 3 3 2 2 2 2 2 2 2 2 2 2 2 3 3 3 3 3 3 3 3 3 3 4 4 4 4 5 5 5 5 5 5 5
6 5 5 5 4 4 4 4 3 3 3 2 2 2 2 2 2 2 2 2 2 2 2 2 3 3 3 3 3 3 3 4 4 4 4 4 5 5 5 5 5 5 5
6 5 5 5 5 4 4 4 3 3 2 2 2 2 2 2 2 2 2 2 2 2 2 2 2 3 3 3 3 3 3 4 4 4 4 5 5 5 5 5 5 5 5
6 5 5 5 5 4 4 4 3 3 3 2 2 2 2 2 2 2 2 2 2 2 2 2 2 2 3 3 3 3 3 4 4 4 4 4 4 4 5 5 5 5 5
Wind_Speed
16 16 17 16 16 16 15 16 15 15 14 15 14 14 14 13 12 11 10 10 9 7 6 6 5 4 3 3 3 3 4 5 7 8 7 7 8 10 11 13 14 15 14
17 17 17 17 17 17 16 16 15 16 15 14 14 14 13 12 10 10 9 8 7 6 5 4 3 2 3 3 4 5 4 5 7 9 9 9 10 10 10 12 13 13 14
17 17 17 17 16 16 15 15 14 14 14 14 13 13 12 10 9 8 7 6 5 4 3 3 3 3 4 3 4 5 6 6 7 9 10 9 10 9 10 11 12 11 14
16 17 16 15 15 14 14 14 13 13 13 13 11 10 10 9 8 7 6 5 4 3 3 3 4 4 5 5 5 5 6 8 8 9 10 10 9 9 9 10 11 10 11
15 16 15 14 13 13 13 12 12 11 11 10 10 9 8 8 8 7 5 5 4 3 3 3 3 3 5 6 7 8 8 8 9 9 10 10 10 10 10 9 11 12 12
14 14 13 13 13 12 11 10 10 10 9 9 9 9 9 8 8 9 8 5 5 5 5 5 4 4 2 5 7 8 10 10 11 11 10 11 12 11 10 10 11 11 11
13 12 12 12 11 10 10 9 9 9 8 8 7 7 8 8 6 6 8 8 6 6 6 6 6 5 6 7 6 10 13 16 15 12 13 13 13 11 11 12 11 12 13
11 11 10 10 10 9 9 9 8 7 7 6 6 6 5 6 4 5 9 8 6 6 6 6 7 7 5 7 11 12 11 9 8 9 10 11 11 10 11 11 12 12 12
10 10 9 9 9 8 8 7 6 5 5 4 5 4 5 5 6 7 11 9 6 7 6 5 6 6 7 7 11 12 11 8 6 10 12 14 16 17 14 10 10 10 10
9 8 8 8 8 8 7 6 5 4 4 4 4 4 5 5 6 7 11 8 7 7 6 4 2 3 6 8 10 11 11 9 9 7 8 12 13 14 16 12 10 9 10
8 8 8 8 7 6 5 4 3 3 3 4 4 3 4 5 4 5 8 8 9 9 7 6 4 3 7 10 10 10 10 11 11 10 8 7 6 5 6 7 7 8 9
7 7 6 5 4 4 3 2 2 4 3 3 3 3 3 3 4 4 4 6 8 9 8 7 7 10 13 13 10 8 11 11 9 8 7 6 6 6 6 7 8 9 8
6 5 4 3 2 2 2 2 3 3 5 5 5 5 5 5 2 4 7 9 10 8 8 9 12 13 14 11 9 11 10 8 7 7 7 7 7 7 7 7 7 7 7
4 3 2 1 0 1 2 3 4 5 6 6 6 6 6 5 7 8 8 6 5 6 8 8 10 12 11 9 8 7 6 6 7 7 8 8 7 7 6 7 7 6 6
2 1 0 0 1 2 2 4 5 6 6 6 7 7 7 7 8 10 9 9 10 9 11 8 6 5 5 5 5 5 5 5 6 6 7 8 8 7 7 7 6 6 6
1 1 1 1 1 2 1 3 7 5 5 4 6 7 5 6 9 11 11 11 12 12 9 6 6 6 7 7 7 7 7 7 8 8 8 8 9 9 9 8 7 6 6
1 2 2 2 2 2 2 2 2 4 3 2 0 3 6 8 8 9 10 12 11 10 5 5 6 7 7 8 8 8 9 9 8 9 9 9 9 9 9 9 8 8 7
2 1 2 1 1 2 2 2 3 3 3 3 4 1 3 5 6 8 11 9 4 3 5 6 6 7 7 8 8 9 9 9 10 10 9 10 10 10 10 9 8 9 8
2 1 1 2 1 2 2 3 3 4 4 4 4 3 0 3 5 6 7 5 6 6 7 7 7 7 8 8 8 8 9 10 10 10 9 10 10 10 10 9 9 7 7
1 3 1 1 2 2 2 3 4 4 4 4 4 4 4 3 3 4 5 6 7 7 8 8 7 8 8 9 9 10 10 10 11 10 9 9 9 9 10 10 10 9 8
2 5 5 2 2 3 3 3 3 3 3 3 4 4 6 4 4 5 6 7 7 8 8 9 8 8 8 9 10 11 12 11 11 10 10 9 9 9 9 9 9 9 9
1 3 3 3 3 3 3 2 2 3 3 3 2 2 2 3 4 5 6 7 7 8 9 8 8 8 9 9 10 10 11 11 11 11 10 10 9 9 9 9 9 9 10
2 3 3 3 3 4 2 2 2 2 2 2 2 2 2 3 4 5 6 7 7 8 9 9 9 9 12 11 11 10 10 11 11 11 10 9 9 8 8 9 10 9 10
2 2 3 3 2 2 2 2 2 2 2 2 2 2 2 3 4 5 6 7 8 9 9 9 10 12 13 12 12 11 13 14 14 12 11 9 9 8 8 8 9 10 10
3 3 3 2 2 2 3 3 3 3 2 2 2 2 3 4 4 5 6 7 8 8 10 10 10 11 13 14 15 15 18 18 15 14 12 8 9 9 8 8 8 9 10
3 3 3 3 2 2 3 3 3 3 3 3 3 3 3 4 5 5 6 7 8 8 9 9 12 13 15 14 16 19 20 20 19 19 13 8 8 9 9 8 9 8 9
Wind_Direction
63 67 69 70 71 73 75 75 77 76 76 77 75 74 71 67 65 67 66 62 62 57 51 55 47 24 9 352 339 322 313 308 299 300 305 305 301 297 304 302 299 295 291
68 70 71 72 73 74 74 75 77 78 77 77 77 74 71 67 63 63 64 61 60 53 41 33 22 8 350 325 325 316 314 314 298 302 304 301 301 299 298 298 298 298 302
73 74 73 73 73 75 76 76 77 79 78 75 74 74 72 68 66 63 63 60 55 47 27 2 342 331 311 316 306 305 304 298 296 296 298 303 299 301 303 298 301 303 301
78 78 76 76 76 77 77 78 78 79 79 78 77 77 77 75 71 68 65 58 49 35 11 338 324 321 319 316 299 297 303 305 298 293 294 299 300 305 305 307 311 312 312
81 81 81 82 81 80 79 80 81 82 84 86 86 85 80 70 56 45 48 46 28 10 353 333 333 343 346 326 318 321 313 305 302 299 300 303 308 315 315 318 312 313 310
85 86 87 87 86 86 87 89 90 90 90 90 86 81 73 66 52 25 1 18 7 354 345 331 311 250 256 256 264 282 293 294 301 303 301 304 307 311 317 313 311 311 313
91 92 93 94 95 97 100 100 99 97 93 86 81 78 77 77 57 19 351 340 348 350 338 328 321 334 307 308 278 251 255 245 248 274 290 297 306 314 315 311 311 310 310
93 94 96 98 100 101 101 97 95 91 87 81 72 63 66 80 59 4 328 308 329 331 324 318 317 317 337 336 313 302 295 285 262 258 279 293 302 308 307 301 298 297 297
96 97 99 102 103 102 98 95 90 85 79 72 60 45 43 80 61 9 332 320 331 328 321 318 315 317 52 347 304 298 301 305 264 240 260 273 280 279 277 288 297 304 315
101 102 103 102 98 95 91 86 82 73 59 43 44 32 25 44 70 20 340 327 338 331 324 310 205 313 349 318 302 303 310 323 323 304 265 260 261 258 243 251 284 305 316
108 107 102 100 99 95 88 73 55 38 30 18 18 22 33 34 90 54 356 338 339 329 327 333 30 46 321 304 290 289 305 312 305 302 299 294 289 284 269 260 277 292 307
109 108 106 102 96 93 79 53 17 350 341 359 6 5 28 48 40 44 329 310 310 316 323 339 355 344 319 301 291 293 298 292 289 296 303 310 312 315 315 310 299 291 290
109 108 111 111 93 53 7 354 341 341 347 358 359 4 13 15 61 203 253 264 267 297 329 332 314 305 300 287 255 272 284 284 298 312 318 321 321 324 315 304 298 297 301
113 118 131 141 143 39 340 348 356 1 0 2 3 2 8 14 14 3 347 336 305 305 324 312 288 279 275 285 294 279 282 307 321 321 321 323 324 322 319 319 322 331 337
125 138 185 328 22 0 14 21 7 35 29 2 4 3 4 5 12 347 331 336 337 338 328 320 327 334 342 353 342 335 334 334 332 332 334 334 336 341 344 344 337 336 348
174 213 283 309 349 332 34 109 70 51 80 56 21 357 7 13 341 327 322 315 309 308 313 329 343 352 355 354 351 352 355 353 349 348 349 348 347 349 352 351 350 352 0
311 332 327 337 343 337 359 28 111 132 154 159 71 352 341 338 330 327 326 320 304 301 321 349 354 355 357 356 357 358 358 357 356 354 355 354 353 353 355 357 2 4 11
278 173 297 344 3 26 38 34 34 48 102 119 152 156 333 328 322 323 320 316 336 338 2 360 357 357 1 1 2 1 357 357 359 355 356 357 356 356 359 3 12 9 8
288 359 23 27 54 67 65 55 54 52 55 57 71 103 347 287 261 283 308 359 13 14 14 10 5 3 2 359 359 357 353 355 357 352 357 357 355 356 360 3 12 15 4
145 74 328 130 107 102 92 76 67 62 59 58 52 32 11 2 23 20 18 17 15 16 11 7 6 2 358 356 355 356 354 357 358 357 357 356 356 355 357 4 10 11 15
125 135 180 191 100 96 95 87 79 67 65 64 62 43 343 347 18 19 18 20 17 10 4 355 355 359 358 357 356 354 354 358 360 358 355 354 355 356 359 8 13 15 16
124 146 148 108 108 104 98 100 89 77 71 71 80 103 280 319 13 17 19 18 13 7 2 353 349 357 360 356 351 347 352 357 358 355 351 350 353 0 9 15 19 22 18
144 139 134 124 118 131 170 112 91 83 85 88 81 60 37 17 21 19 17 12 7 5 1 357 353 360 359 352 347 344 352 353 344 339 339 347 356 7 15 19 22 29 33
134 145 138 135 136 138 116 106 98 90 89 90 76 58 38 22 19 16 10 7 5 5 5 3 1 1 359 358 354 356 1 346 334 330 335 345 5 14 19 23 27 25 25
139 140 144 137 132 117 109 110 105 100 94 88 79 57 36 23 18 13 10 8 5 9 8 9 7 7 5 7 7 1 354 352 346 336 330 355 18 19 21 27 28 29 26
134 137 143 135 129 119 119 118 109 104 98 90 77 59 38 24 19 15 13 11 7 13 12 12 11 16 14 11 7 2 1 0 355 345 334 3 28 22 10 21 25 29 29
Height
1515 1516 1516 1517 1518 1519 1520 1521 1523 1524 1527 1529 1530 1531 1533 1535 1537 1539 1539 1541 1541 1542 1543 1544 1544 1544 1544 1544 1544 1545 1545 1545 1544 1543 1542 1539 1536 1533 1531 1528 1525 1522 1519
1519 1519 1519 1520 1522 1523 1524 1525 1527 1529 1531 1532 1534 1535 1537 1538 1540 1541 1541 1542 1542 1542 1543 1543 1543 1543 1543 1543 1543 1544 1543 1542 1541 1540 1538 1536 1533 1530 1527 1523 1521 1518 1515
1524 1524 1525 1526 1527 1528 1530 1531 1533 1534 1536 1537 1538 1539 1540 1541 1542 1542 1542 1542 1542 1542 1542 1543 1543 1542 1542 1543 1541 1542 1542 1541 1539 1537 1535 1533 1530 1527 1524 1520 1517 1513 1510
1530 1531 1531 1533 1534 1535 1536 1537 1539 1540 1540 1541 1542 1542 1543 1543 1543 1544 1544 1543 1543 1543 1542 1542 1542 1542 1542 1541 1540 1540 1539 1538 1536 1534 1532 1530 1527 1524 1521 1517 1513 1510 1506
1536 1536 1537 1539 1540 1541 1542 1542 1543 1543 1544 1544 1545 1545 1546 1546 1545 1545 1545 1545 1544 1543 1542 1541 1541 1540 1539 1538 1538 1538 1536 1535 1534 1532 1529 1527 1524 1521 1518 1514 1510 1506 1502
1541 1542 1543 1544 1544 1545 1546 1546 1547 1547 1547 1548 1548 1549 1548 1548 1546 1546 1545 1545 1544 1543 1542 1541 1540 1539 1537 1535 1534 1534 1533 1531 1530 1529 1526 1524 1521 1518 1514 1511 1507 1503 1499
1546 1547 1547 1548 1548 1549 1550 1550 1551 1551 1551 1551 1552 1551 1550 1549 1547 1546 1545 1544 1544 1542 1541 1540 1539 1539 1536 1535 1533 1531 1530 1528 1526 1525 1523 1520 1517 1515 1511 1508 1505 1501 1496
1551 1551 1552 1552 1553 1553 1554 1554 1554 1555 1554 1554 1554 1553 1552 1550 1548 1547 1545 1544 1543 1541 1540 1538 1537 1535 1534 1532 1530 1529 1527 1526 1524 1522 1520 1517 1514 1511 1508 1505 1502 1498 1494
1554 1555 1556 1556 1557 1557 1558 1558 1558 1557 1557 1557 1556 1554 1553 1551 1549 1547 1544 1543 1543 1541 1539 1537 1536 1534 1532 1530 1528 1526 1525 1523 1522 1519 1517 1514 1511 1509 1506 1502 1500 1497 1492
1558 1559 1559 1560 1560 1560 1560 1560 1560 1559 1559 1558 1557 1555 1553 1551 1548 1546 1544 1543 1542 1540 1539 1537 1534 1533 1531 1529 1527 1525 1523 1522 1520 1517 1515 1512 1509 1506 1504 1501 1498 1495 1491
1561 1561 1562 1562 1562 1562 1562 1562 1561 1561 1559 1558 1556 1555 1553 1550 1548 1546 1543 1541 1540 1539 1538 1536 1535 1532 1530 1528 1526 1524 1522 1520 1518 1515 1513 1510 1508 1505 1503 1500 1496 1493 1489
1563 1564 1564 1564 1565 1564 1564 1563 1562 1561 1560 1558 1556 1555 1553 1551 1548 1546 1543 1541 1539 1537 1536 1535 1533 1531 1529 1527 1525 1524 1522 1519 1517 1514 1512 1509 1507 1504 1502 1499 1495 1491 1487
1565 1566 1566 1566 1565 1565 1564 1564 1562 1561 1560 1558 1557 1555 1554 1551 1549 1546 1543 1541 1539 1537 1536 1534 1532 1530 1528 1527 1525 1523 1521 1519 1516 1514 1511 1508 1506 1503 1500 1496 1492 1489 1486
1567 1567 1567 1566 1566 1565 1564 1564 1563 1561 1560 1558 1557 1555 1553 1551 1549 1547 1544 1542 1540 1538 1536 1534 1532 1530 1528 1526 1525 1522 1520 1518 1516 1513 1510 1507 1505 1502 1498 1495 1492 1488 1485
1567 1567 1567 1567 1566 1565 1564 1563 1562 1561 1559 1558 1557 1555 1553 1551 1549 1546 1543 1541 1539 1537 1535 1534 1532 1531 1529 1527 1525 1523 1520 1518 1515 1513 1510 1507 1504 1501 1498 1495 1491 1488 1485
1567 1567 1567 1566 1566 1565 1564 1562 1561 1560 1558 1557 1555 1554 1552 1550 1548 1546 1544 1542 1540 1538 1537 1535 1533 1532 1530 1528 1525 1523 1521 1518 1515 1513 1510 1507 1504 1501 1498 1494 1491 1488 1485
1567 1567 1567 1566 1565 1564 1563 1563 1561 1560 1558 1557 1555 1554 1552 1550 1549 1547 1545 1544 1542 1540 1538 1537 1535 1533 1531 1529 1527 1524 1522 1519 1517 1514 1511 1508 1505 1502 1498 1495 1492 1489 1486
1567 1566 1566 1565 1565 1564 1563 1562 1562 1561 1560 1558 1557 1555 1553 1552 1550 1548 1547 1545 1544 1542 1541 1539 1537 1535 1533 1531 1529 1526 1524 1521 1518 1515 1513 1510 1506 1503 1500 1496 1493 1490 1487
1566 1566 1565 1565 1564 1564 1563 1563 1562 1561 1561 1560 1559 1557 1555 1554 1552 1551 1549 1548 1547 1545 1543 1541 1539 1537 1535 1533 1531 1528 1526 1523 1520 1517 1514 1511 1508 1505 1501 1498 1495 1492 1489
1565 1565 1565 1565 1564 1564 1564 1563 1563 1562 1562 1561 1560 1559 1557 1556 1555 1554 1552 1551 1549 1547 1545 1543 1541 1539 1537 1535 1533 1530 1527 1524 1521 1518 1515 1512 1509 1506 1503 1500 1497 1494 1491
1565 1564 1564 1565 1565 1565 1564 1564 1564 1564 1563 1562 1561 1560 1558 1558 1557 1556 1554 1553 1551 1549 1547 1545 1543 1541 1539 1537 1534 1531 1529 1526 1522 1519 1517 1514 1511 1508 1505 1502 1499 1496 1493
1565 1565 1565 1565 1565 1565 1565 1565 1565 1564 1564 1563 1562 1561 1560 1559 1559 1558 1556 1555 1553 1551 1548 1546 1544 1542 1540 1538 1535 1532 1530 1527 1523 1520 1518 1515 1513 1510 1507 1504 1502 1499 1496
1565 1565 1565 1566 1566 1565 1565 1565 1565 1565 1564 1564 1563 1563 1562 1561 1560 1559 1557 1556 1554 1551 1549 1546 1544 1543 1540 1538 1536 1533 1530 1527 1524 1521 1519 1517 1515 1512 1509 1507 1504 1502 1499
1565 1565 1566 1566 1566 1566 1566 1566 1565 1565 1565 1564 1564 1563 1563 1562 1561 1559 1558 1556 1554 1551 1549 1547 1545 1543 1540 1538 1536 1534 1531 1528 1525 1522 1520 1519 1517 1514 1512 1509 1507 1505 1502
1565 1565 1566 1566 1566 1566 1566 1566 1566 1565 1565 1565 1564 1564 1564 1563 1562 1560 1558 1556 1554 1552 1550 1548 1545 1543 1541 1539 1537 1534 1532 1529 1526 1524 1522 1521 1519 1517 1514 1512 1510 1508 1505
1565 1566 1566 1566 1566 1566 1566 1566 1566 1566 1566 1566 1565 1565 1564 1563 1562 1560 1558 1556 1554 1553 1550 1549 1546 1544 1542 1540 1538 1535 1533 1531 1528 1526 1524 1523 1521 1518 1516 1515 1513 1510 1508